Home > Weather > Augusta > Past weeks

Flag for USA Weather for the Past 2 Weeks in Augusta, Maine, USA

Now
52 °F

Overcast.


Feels Like: 50 °F
Forecast: 43 / 51 °F
Wind: 6 mph from North

Location: Waterville Weather Reporting Station

Current Time: May 4, 2016 at 6:08:18 PM

Latest Report: May 4, 2016 at 4:56 PM


Visibility: 10 mi

Pressure: 29.97 "Hg

Humidity: 64%

Dew Point: 40 °F

Location of AugustaLocation

Historic Weather in Augusta — Graph

°F

Augusta Temperature Yesterday

Maximum temperature yesterday: 51 °F (at 12:56 PM)
Minimum temperature yesterday: 39 °F (at 5:56 AM)
Average temperature yesterday: 46 °F

High & Low Weather Summary for the Past Weeks

 TemperatureHumidityPressure
High75 °F (Apr 21, 4:56 PM)100% (Apr 27, 6:56 AM)30.34 "Hg (Apr 27, 6:56 AM)
Low22 °F (Apr 27, 5:56 AM)11% (Apr 21, 2:56 PM)29.78 "Hg (Apr 27, 2:02 AM)
Average45 °F54%30.09 "Hg
* Reported Apr 19 1:56 PM — May 4 1:56 PM, Augusta, Weather by CustomWeather, © 2016

Note: Actual official high and low records may vary slightly from our data, if they occured in-between our weather recording intervals... More about our weather records

Advertising

Augusta Weather History for the Previous 24 Hours

Scroll right to see more
 ConditionsComfort  
Time TempWeatherWind HumidityBarometerVisibility
1:56 PM
Wed, May 4
53 °FOvercast.8 mph56%29.99 "Hg10 mi
12:56 PM52 °FOvercast.8 mph57%30.01 "Hg10 mi
10:56 AM51 °FPartly sunny.10 mph63%30.00 "Hg10 mi
9:56 AM49 °FMostly cloudy.7 mph74%30.02 "Hg10 mi
8:56 AM47 °FMostly cloudy.3 mph80%30.03 "Hg10 mi
7:56 AM45 °FOvercast.6 mph86%30.01 "Hg10 mi
6:56 AM45 °FOvercast.5 mph86%30.00 "Hg10 mi
5:56 AM45 °FOvercast.5 mphN/A29.99 "Hg10 mi
4:56 AM45 °FOvercast.7 mph86%29.97 "Hg10 mi
3:56 AM45 °FOvercast.3 mph86%29.97 "Hg10 mi
2:56 AM46 °FOvercast.6 mph83%29.97 "Hg10 mi
1:56 AM45 °FOvercast.No wind86%29.97 "Hg10 mi
12:56 AM46 °FOvercast.3 mph83%29.98 "Hg10 mi
11:56 PM
Tue, May 3
47 °FOvercast.5 mph80%29.97 "Hg10 mi
10:56 PM47 °FOvercast.No wind80%29.98 "Hg10 mi
9:56 PM48 °FOvercast.No wind77%29.98 "Hg10 mi
8:56 PM49 °FOvercast.5 mph74%29.98 "Hg10 mi
7:56 PM49 °FOvercast.No wind74%29.96 "Hg10 mi
6:56 PM50 °FOvercast.No wind71%29.95 "Hg10 mi
Weather by CustomWeather, © 2016

See weather overviewHow to use our weather pages